Weather History for KOWP - January, 2014

Change the Weather History Date:

Thursday, January 16, 2014

  Actual Average (KTUL) Record (KTUL)
Temperature  
Mean Temperature 48 °F 38 °F  
Max Temperature 58 °F 48 °F 78 °F (1938)
Min Temperature 39 °F 27 °F 1 °F (1930)
Degree Days  
Heating Degree Days 16 27  
Month to date heating degree days 447  
Since 1 July heating degree days 1875  
Moisture  
Dew Point 19 °F    
Average Humidity 32    
Maximum Humidity 57    
Minimum Humidity 15    
Precipitation  
Precipitation 0.00 in 0.06 in 1.90 in (1932)
Month to date precipitation 0.83  
Year to date precipitation 0.83  
Sea Level Pressure  
Sea Level Pressure 30.01 in    
Wind  
Wind Speed 1 mph (NW)    
Max Wind Speed 20 mph    
Max Gust Speed 31 mph    
Visibility 10 miles    
Events      
T = Trace of Precipitation, MM = Missing Value Source: NWS Daily Summary

Daily Weather History Graph

Daily Weather History Graph

Search for Another Location

Airport or City:

Trip Planner

Search our weather history database for the weather conditions in past years. The results will help you decide how hot, cold, wet, or windy it might be!

Date:

Astronomy

Jan. 16, 2014 Rise Set
Actual Time 7:34 AM CST 5:34 PM CST
Civil Twilight 7:06 AM CST 6:02 PM CST
Nautical Twilight 6:35 AM CST 6:34 PM CST
Astronomical Twilight 6:04 AM CST 7:04 PM CST
Moon 6:24 PM CST (1/16) 7:31 AM CST (1/16)
Length of Visible Light 10h 55m
Length of Day
10h 00m
Full, 100% of the Moon is Illuminated
Jan 16
Full
Jan 23
Last Quarter
Jan 30
New
Feb 6
First Quarter
Feb 14
Full

Hourly Weather History & Observations

Time (CST) Temp. Windchill Dew Point Humidity Pressure Visibility Wind Dir Wind Speed Gust Speed Precip Events Conditions
12:15 AM 47.3 °F - 22.5 °F 38% 29.93 in 10.0 mi Calm Calm - N/A   Clear
12:35 AM 46.9 °F - 22.6 °F 38% 29.92 in 10.0 mi Calm Calm - N/A   Clear
12:55 AM 47.3 °F - 22.6 °F 38% 29.91 in 10.0 mi Calm Calm - N/A   Clear
1:15 AM 46.8 °F - 22.8 °F 39% 29.91 in 10.0 mi Calm Calm - N/A   Clear
1:35 AM 46.9 °F - 22.8 °F 39% 29.90 in 10.0 mi Calm Calm - N/A   Clear
1:55 AM 46.9 °F - 22.6 °F 38% 29.90 in 10.0 mi Calm Calm - N/A   Clear
2:15 AM 47.3 °F - 22.5 °F 38% 29.90 in 10.0 mi Calm Calm - N/A   Clear
2:35 AM 47.7 °F - 22.3 °F 37% 29.90 in 10.0 mi Calm Calm - N/A   Clear
2:55 AM 47.5 °F - 22.6 °F 38% 29.90 in 10.0 mi Calm Calm - N/A   Clear
3:15 AM 46.8 °F - 22.8 °F 39% 29.91 in 10.0 mi Calm Calm - N/A   Clear
3:35 AM 46.0 °F - 22.8 °F 40% 29.91 in 10.0 mi Calm Calm - N/A   Clear
3:55 AM 45.3 °F - 23.0 °F 41% 29.91 in 10.0 mi Calm Calm - N/A   Clear
4:15 AM 44.8 °F - 23.5 °F 43% 29.92 in 10.0 mi Calm Calm - N/A   Clear
4:35 AM 44.4 °F - 23.5 °F 44% 29.91 in 10.0 mi Calm Calm - N/A   Clear
4:55 AM 44.4 °F - 23.7 °F 44% 29.91 in 10.0 mi Calm Calm - N/A   Clear
5:15 AM 43.0 °F - 23.7 °F 47% 29.91 in 10.0 mi Calm Calm - N/A   Clear
5:35 AM 43.5 °F - 23.9 °F 46% 29.91 in 10.0 mi Calm Calm - N/A   Clear
5:55 AM 42.8 °F - 23.9 °F 47% 29.92 in 10.0 mi Calm Calm - N/A   Clear
6:15 AM 42.3 °F - 23.9 °F 48% 29.93 in 10.0 mi Calm Calm - N/A   Clear
6:35 AM 41.2 °F - 24.4 °F 51% 29.94 in 10.0 mi Calm Calm - N/A   Clear
6:55 AM 40.6 °F - 24.6 °F 53% 29.95 in 10.0 mi Calm Calm - N/A   Clear
7:15 AM 40.8 °F - 24.8 °F 53% 29.96 in 10.0 mi Calm Calm - N/A   Clear
7:35 AM 40.5 °F - 25.2 °F 54% 29.97 in 10.0 mi Calm Calm - N/A   Clear
7:55 AM 39.4 °F - 25.3 °F 57% 29.98 in 10.0 mi Calm Calm - N/A   Clear
8:15 AM 40.3 °F - 26.2 °F 57% 30.00 in 10.0 mi Calm Calm - N/A   Clear
8:35 AM 41.9 °F - 27.3 °F 56% 30.02 in 10.0 mi Calm Calm - N/A   Clear
8:55 AM 43.0 °F - 27.7 °F 55% 30.03 in 10.0 mi Calm Calm - N/A   Clear
9:15 AM 44.8 °F - 28.2 °F 52% 30.04 in 10.0 mi Calm Calm - N/A   Clear
9:35 AM 47.3 °F - 28.8 °F 49% 30.04 in 10.0 mi Calm Calm - N/A   Clear
9:55 AM 50.2 °F - 28.4 °F 43% 30.05 in 10.0 mi Calm Calm - N/A   Clear
10:15 AM 52.3 °F - 27.5 °F 38% 30.04 in 10.0 mi Calm Calm - N/A   Clear
10:35 AM 54.7 °F - 25.5 °F 32% 30.06 in 10.0 mi NNW 4.6 mph - N/A   Clear
10:55 AM 55.4 °F - 23.9 °F 30% 30.06 in 10.0 mi NW 3.5 mph 20.7 mph N/A   Clear
11:15 AM 57.6 °F - 22.5 °F 26% 30.06 in 10.0 mi Calm Calm - N/A   Clear
11:35 AM 57.0 °F - 22.1 °F 26% 30.06 in 10.0 mi NW 3.5 mph 26.5 mph N/A   Clear
11:55 AM 57.0 °F - 22.1 °F 26% 30.05 in 10.0 mi NW 4.6 mph 29.9 mph N/A   Clear
12:15 PM 56.8 °F - 18.5 °F 22% 30.04 in 10.0 mi NW 17.3 mph 31.1 mph N/A   Clear
12:35 PM 57.2 °F - 16.9 °F 21% 30.03 in 10.0 mi NNW 19.6 mph 27.6 mph N/A   Clear
12:55 PM 57.2 °F - 17.2 °F 21% 30.02 in 10.0 mi NW 18.4 mph 28.8 mph N/A   Clear
1:15 PM 56.7 °F - 16.9 °F 21% 30.02 in 10.0 mi NW 13.8 mph 31.1 mph N/A   Clear
1:35 PM 56.7 °F - 16.0 °F 20% 30.02 in 10.0 mi WNW 5.8 mph 29.9 mph N/A   Clear
1:55 PM 57.2 °F - 15.8 °F 20% 30.01 in 10.0 mi NW 3.5 mph 21.9 mph N/A   Clear
2:15 PM 57.7 °F - 14.7 °F 18% 30.00 in 10.0 mi WNW 4.6 mph 23.0 mph N/A   Clear
2:35 PM 58.3 °F - 15.6 °F 19% 30.00 in 10.0 mi WNW 8.1 mph 24.2 mph N/A   Clear
2:55 PM 58.3 °F - 17.2 °F 20% 30.00 in 10.0 mi WNW 6.9 mph - N/A   Clear
3:15 PM 58.5 °F - 16.5 °F 19% 29.99 in 10.0 mi Calm Calm - N/A   Clear
3:35 PM 57.7 °F - 15.3 °F 19% 29.98 in 10.0 mi Calm Calm - N/A   Clear
3:55 PM 57.7 °F - 9.5 °F 15% 29.99 in 10.0 mi NW 4.6 mph - N/A   Clear
4:15 PM 57.2 °F - 15.3 °F 19% 30.00 in 10.0 mi WNW 3.5 mph - N/A   Scattered Clouds
4:35 PM 56.7 °F - 15.8 °F 20% 30.00 in 10.0 mi Calm Calm - N/A   Mostly Cloudy
4:55 PM 55.4 °F - 12.4 °F 18% 30.00 in 10.0 mi Calm Calm - N/A   Scattered Clouds
5:15 PM 54.1 °F - 12.7 °F 19% 30.01 in 10.0 mi Calm Calm - N/A   Clear
5:35 PM 52.9 °F - 13.1 °F 21% 30.00 in 10.0 mi Calm Calm - N/A   Clear
5:55 PM 52.7 °F - 12.9 °F 21% 30.01 in 10.0 mi Calm Calm - N/A   Clear
6:15 PM 52.3 °F - 11.8 °F 20% 30.02 in 10.0 mi Calm Calm - N/A   Clear
6:35 PM 51.8 °F - 11.3 °F 20% 30.02 in 10.0 mi Calm Calm - N/A   Clear
6:55 PM 51.3 °F - 11.1 °F 20% 30.03 in 10.0 mi Calm Calm - N/A   Clear
7:15 PM 51.8 °F - 9.3 °F 18% 30.04 in 10.0 mi Calm Calm - N/A   Clear
7:35 PM 50.7 °F - 9.0 °F 19% 30.05 in 10.0 mi Calm Calm - N/A   Clear
7:55 PM 50.9 °F - 7.5 °F 17% 30.06 in 10.0 mi NW 3.5 mph - N/A   Clear
8:15 PM 50.2 °F - 7.5 °F 18% 30.07 in 10.0 mi Calm Calm - N/A   Clear
8:35 PM 49.1 °F - 7.9 °F 19% 30.08 in 10.0 mi Calm Calm - N/A   Clear
8:55 PM 48.2 °F - 9.7 °F 21% 30.10 in 10.0 mi Calm Calm - N/A   Clear
9:15 PM 47.3 °F - 11.1 °F 23% 30.11 in 10.0 mi NNW 4.6 mph - N/A   Clear
9:35 PM 46.4 °F - 11.8 °F 25% 30.12 in 10.0 mi Calm Calm - N/A   Clear
9:55 PM 45.3 °F - 12.4 °F 26% 30.13 in 10.0 mi Calm Calm - N/A   Clear
10:15 PM 44.4 °F - 12.2 °F 27% 30.14 in 10.0 mi Calm Calm - N/A   Clear
10:35 PM 43.2 °F - 12.4 °F 29% 30.15 in 10.0 mi Calm Calm - N/A   Clear
10:55 PM 42.8 °F - 13.1 °F 30% 30.15 in 10.0 mi Calm Calm - N/A   Clear
11:15 PM 42.8 °F 40.1 °F 12.2 °F 29% 30.16 in 10.0 mi NNW 4.6 mph 18.4 mph N/A   Clear
11:35 PM 42.3 °F 40.5 °F 11.3 °F 28% 30.16 in 10.0 mi NW 3.5 mph 19.6 mph N/A   Clear
11:55 PM 41.9 °F - 11.8 °F 29% 30.16 in 10.0 mi Calm Calm - N/A   Clear